Weather History for Kokomo, IN

Change the Weather History Date:

Wednesday, January 2, 2013

  Actual Average (KGUS) Record (KGUS)
Temperature  
Mean Temperature 11 °F -  
Max Temperature 21 °F 32 °F 60 °F (2004)
Min Temperature 1 °F 21 °F 1 °F (2008)
Degree Days  
Heating Degree Days 54    
Moisture  
Dew Point 5 °F    
Average Humidity 75    
Maximum Humidity 92    
Minimum Humidity 54    
Precipitation  
Precipitation 0.00 in - - ()
Sea Level Pressure  
Sea Level Pressure 30.18 in    
Wind  
Wind Speed 6 mph (WSW)    
Max Wind Speed 9 mph    
Max Gust Speed -    
Visibility 10 miles    
Events      
Averages and records for this station are not official NWS values.
T = Trace of Precipitation, MM = Missing Value Source: NWS Daily Summary

Daily Weather History Graph

Daily Weather History Graph

Search for Another Location

Airport:

Trip Planner

Search our weather history database for the weather conditions in past years. The results will help you decide how hot, cold, wet, or windy it might be!

Date:

Astronomy

Jan. 02, 2013 Rise Set
Actual Time 7:07 AM CST 4:29 PM CST
Civil Twilight 6:37 AM CST 4:59 PM CST
Nautical Twilight 6:02 AM CST 5:34 PM CST
Astronomical Twilight 5:29 AM CST 6:07 PM CST
Moon 10:02 PM CST (1/2) 9:48 AM CST (1/2)
Length of Visible Light 10h 22m
Length of Day
9h 21m
Waning Gibbous, 75% of the Moon is Illuminated
Jan 2
Waning Gibbous
Jan 4
Last Quarter
Jan 11
New
Jan 18
First Quarter
Jan 26
Full

Hourly Weather History & Observations

Time (CST) Temp. Windchill Dew Point Humidity Pressure Visibility Wind Dir Wind Speed Gust Speed Precip Events Conditions
12:15 AM 12.2 °F 0.7 °F 8.6 °F 85% 30.14 in 10.0 mi West 8.1 mph - N/A   Clear
12:35 AM 12.2 °F -0.2 °F 10.4 °F 92% 30.14 in 10.0 mi West 9.2 mph - N/A   Clear
12:55 AM 10.4 °F -1.5 °F 8.6 °F 92% 30.15 in 10.0 mi West 8.1 mph - N/A   Clear
1:15 AM 10.4 °F 0.8 °F 3.2 °F 73% 30.16 in 10.0 mi West 5.8 mph - N/A   Clear
1:35 AM 8.6 °F -2.6 °F 1.4 °F 73% 30.15 in 10.0 mi WNW 6.9 mph - N/A   Clear
1:55 AM 8.6 °F -2.6 °F 3.2 °F 79% 30.17 in 10.0 mi WNW 6.9 mph - N/A   Clear
2:15 AM 8.6 °F -1.3 °F 6.8 °F 92% 30.16 in 10.0 mi West 5.8 mph - N/A   Clear
2:35 AM 6.8 °F -4.8 °F 1.4 °F 79% 30.17 in 10.0 mi West 6.9 mph - N/A   Clear
2:55 AM 8.6 °F -1.3 °F 3.2 °F 79% 30.17 in 10.0 mi West 5.8 mph - N/A   Clear
3:15 AM 6.8 °F -4.8 °F 3.2 °F 85% 30.17 in 10.0 mi West 6.9 mph - N/A   Clear
3:35 AM 8.6 °F -2.6 °F 5.0 °F 85% 30.17 in 10.0 mi West 6.9 mph - N/A   Clear
3:55 AM 8.6 °F -3.7 °F 3.2 °F 79% 30.18 in 10.0 mi West 8.1 mph - N/A   Clear
4:15 AM 6.8 °F -6.9 °F 3.2 °F 85% 30.18 in 10.0 mi West 9.2 mph - N/A   Clear
4:35 AM 6.8 °F -4.8 °F 5.0 °F 92% 30.18 in 10.0 mi West 6.9 mph - N/A   Clear
4:55 AM 6.8 °F -4.8 °F 1.4 °F 79% 30.17 in 10.0 mi West 6.9 mph - N/A   Clear
5:15 AM 5.0 °F -4.1 °F -0.4 °F 78% 30.16 in 10.0 mi WNW 4.6 mph - N/A   Clear
5:35 AM 5.0 °F -5.6 °F 1.4 °F 85% 30.16 in 10.0 mi WNW 5.8 mph - N/A   Clear
5:55 AM 5.0 °F - 1.4 °F 85% 30.16 in 10.0 mi Calm Calm - N/A   Clear
6:15 AM 1.4 °F - -0.4 °F 92% 30.17 in 10.0 mi Calm Calm - N/A   Clear
6:35 AM 3.2 °F -7.8 °F -0.4 °F 85% 30.18 in 10.0 mi West 5.8 mph - N/A   Clear
6:55 AM 5.0 °F - 1.4 °F 85% 30.18 in 10.0 mi Calm Calm - N/A   Clear
7:15 AM 3.2 °F - 1.4 °F 92% 30.19 in 10.0 mi Calm Calm - N/A   Clear
7:35 AM 5.0 °F -4.1 °F 1.4 °F 85% 30.20 in 10.0 mi West 4.6 mph - N/A   Clear
7:55 AM 6.8 °F -0.1 °F 1.4 °F 79% 30.20 in 10.0 mi West 3.5 mph - N/A   Clear
8:15 AM 8.6 °F 0.1 °F 3.2 °F 79% 30.21 in 10.0 mi West 4.6 mph - N/A   Clear
8:35 AM 8.6 °F 2.0 °F 3.2 °F 79% 30.20 in 10.0 mi WNW 3.5 mph - N/A   Clear
8:55 AM 10.4 °F - 6.8 °F 85% 30.23 in 10.0 mi Calm Calm - N/A   Clear
9:15 AM 10.4 °F 0.8 °F 6.8 °F 85% 30.23 in 10.0 mi West 5.8 mph - N/A   Clear
9:35 AM 12.2 °F 2.9 °F 8.6 °F 85% 30.23 in 10.0 mi WNW 5.8 mph - N/A   Clear
9:55 AM 12.2 °F 2.9 °F 6.8 °F 79% 30.24 in 10.0 mi West 5.8 mph - N/A   Clear
10:15 AM 14.0 °F 5.1 °F 6.8 °F 73% 30.24 in 10.0 mi West 5.8 mph - N/A   Clear
10:35 AM 15.8 °F 8.6 °F 6.8 °F 68% 30.23 in 10.0 mi West 4.6 mph - N/A   Clear
10:55 AM 15.8 °F 8.6 °F 6.8 °F 68% 30.22 in 10.0 mi West 4.6 mph - N/A   Clear
11:15 AM 17.6 °F 10.7 °F 8.6 °F 68% 30.22 in 10.0 mi WNW 4.6 mph - N/A   Clear
11:35 AM 17.6 °F 8.2 °F 6.8 °F 63% 30.21 in 10.0 mi WNW 6.9 mph - N/A   Clear
11:55 AM 17.6 °F 8.2 °F 6.8 °F 63% 30.20 in 10.0 mi WNW 6.9 mph - N/A   Clear
12:15 PM 19.4 °F 11.5 °F 6.8 °F 58% 30.19 in 10.0 mi West 5.8 mph - N/A   Clear
12:35 PM 19.4 °F 12.8 °F 6.8 °F 58% 30.18 in 10.0 mi WNW 4.6 mph - N/A   Clear
12:55 PM 19.4 °F 11.5 °F 6.8 °F 58% 30.18 in 10.0 mi WNW 5.8 mph - N/A   Clear
1:15 PM 21.2 °F 16.4 °F 6.8 °F 54% 30.18 in 10.0 mi WNW 3.5 mph - N/A   Clear
1:35 PM 21.2 °F - 6.8 °F 54% 30.17 in 10.0 mi Calm Calm - N/A   Clear
1:55 PM 19.4 °F - 6.8 °F 58% 30.17 in 10.0 mi Calm Calm - N/A   Clear
2:15 PM 19.4 °F 9.5 °F 8.6 °F 63% 30.17 in 10.0 mi South 8.1 mph - N/A   Clear
2:35 PM 19.4 °F 9.5 °F 8.6 °F 63% 30.17 in 10.0 mi South 8.1 mph - N/A   Clear
2:55 PM 19.4 °F 9.5 °F 6.8 °F 58% 30.18 in 10.0 mi South 8.1 mph - N/A   Clear
3:15 PM 17.6 °F 7.3 °F 6.8 °F 63% 30.18 in 10.0 mi South 8.1 mph - N/A   Clear
3:35 PM 17.6 °F 9.3 °F 5.0 °F 58% 30.18 in 10.0 mi South 5.8 mph - N/A   Clear
3:55 PM 15.8 °F 6.1 °F 6.8 °F 68% 30.19 in 10.0 mi South 6.9 mph - N/A   Clear
4:15 PM 15.8 °F 6.1 °F 6.8 °F 68% 30.19 in 10.0 mi South 6.9 mph - N/A   Clear
4:35 PM 14.0 °F 5.1 °F 6.8 °F 73% 30.20 in 10.0 mi South 5.8 mph - N/A   Clear
4:55 PM 14.0 °F 6.5 °F 6.8 °F 73% 30.20 in 10.0 mi South 4.6 mph - N/A   Clear
5:15 PM 12.2 °F 4.3 °F 3.2 °F 67% 30.21 in 10.0 mi SSW 4.6 mph - N/A   Clear
5:35 PM 12.2 °F 4.3 °F 3.2 °F 67% 30.21 in 10.0 mi SSW 4.6 mph - N/A   Clear
5:55 PM 10.4 °F 0.8 °F 3.2 °F 73% 30.21 in 10.0 mi South 5.8 mph - N/A   Clear
6:15 PM 10.4 °F 2.2 °F 3.2 °F 73% 30.20 in 10.0 mi South 4.6 mph - N/A   Clear
6:35 PM 10.4 °F 0.8 °F 3.2 °F 73% 30.19 in 10.0 mi South 5.8 mph - N/A   Clear
6:55 PM 8.6 °F -1.3 °F 3.2 °F 79% 30.18 in 10.0 mi SSE 5.8 mph - N/A   Clear
7:15 PM 10.4 °F 0.8 °F 1.4 °F 67% 30.18 in 10.0 mi South 5.8 mph - N/A   Clear
7:55 PM 10.4 °F -0.4 °F 1.4 °F 67% 30.19 in 10.0 mi South 6.9 mph - N/A   Clear
8:15 PM 10.4 °F 0.8 °F 3.2 °F 73% 30.18 in 10.0 mi South 5.8 mph - N/A   Clear
8:35 PM 10.4 °F 0.8 °F 3.2 °F 73% 30.19 in 10.0 mi South 5.8 mph - N/A   Clear
8:55 PM 10.4 °F 0.8 °F 3.2 °F 73% 30.18 in 10.0 mi South 5.8 mph - N/A   Clear
9:15 PM 10.4 °F -2.4 °F 3.2 °F 73% 30.18 in 10.0 mi South 9.2 mph - N/A   Clear
9:35 PM 10.4 °F -1.5 °F 5.0 °F 79% 30.18 in 10.0 mi South 8.1 mph - N/A   Clear
9:55 PM 10.4 °F -1.5 °F 5.0 °F 79% 30.18 in 10.0 mi South 8.1 mph - N/A   Clear
10:15 PM 10.4 °F -0.4 °F 5.0 °F 79% 30.18 in 10.0 mi South 6.9 mph - N/A   Clear
10:35 PM 10.4 °F -1.5 °F 5.0 °F 79% 30.17 in 10.0 mi SSW 8.1 mph - N/A   Clear
10:55 PM 12.2 °F 0.7 °F 6.8 °F 79% 30.17 in 10.0 mi SSW 8.1 mph - N/A   Clear
11:15 PM 12.2 °F 1.7 °F 6.8 °F 79% 30.17 in 10.0 mi SSW 6.9 mph - N/A   Clear
11:35 PM 12.2 °F 1.7 °F 6.8 °F 79% 30.17 in 10.0 mi SSW 6.9 mph - N/A   Clear
11:55 PM 14.0 °F 2.9 °F 6.8 °F 73% 30.16 in 10.0 mi SSW 8.1 mph - N/A   Clear